Theta_e
314 313 313 314 314 314 314 314 313 312 312 313 313 313 313 313 312 307 301 305 309 318 318 311 309 307 305 304 305 305 300 296 297 298 300 305 304 308 310 308 310 311 312 314 319
313 313 313 313 314 314 314 313 313 312 312 312 313 313 312 312 307 302 309 312 317 320 307 307 304 304 301 302 303 302 298 297 301 303 302 304 304 305 304 305 306 308 313 315 317
314 313 313 313 313 312 312 312 312 312 312 312 312 311 311 311 302 308 322 317 320 323 310 309 304 301 299 302 301 299 297 300 301 304 304 303 303 306 304 302 306 305 310 312 313
314 314 313 313 312 312 312 312 312 312 312 311 311 310 311 307 298 304 330 321 321 318 307 306 305 300 297 298 301 297 300 301 302 303 303 301 303 301 303 304 308 309 310 311 311
314 314 313 312 312 312 312 312 312 311 311 311 310 310 308 298 298 322 328 322 319 315 305 303 303 299 296 297 298 297 298 300 302 301 301 302 300 301 302 306 308 309 309 310 311
315 313 313 313 312 312 312 312 311 311 311 311 310 310 306 292 304 322 319 318 312 307 305 310 307 306 301 299 298 298 298 299 300 301 301 300 301 301 303 307 307 308 309 310 311
315 314 314 313 313 312 312 313 312 312 312 311 310 310 302 295 308 319 315 310 310 310 306 312 310 303 302 298 300 299 296 297 299 300 299 301 298 298 304 305 305 306 308 310 311
315 314 314 314 313 313 313 313 312 312 313 311 311 309 299 304 311 318 315 309 310 310 309 310 308 304 301 301 298 296 295 293 298 297 299 298 293 301 303 303 303 305 307 308 310
315 314 314 314 313 312 312 311 312 312 313 313 308 305 301 316 310 314 314 306 307 308 309 309 306 300 300 296 294 293 290 291 294 298 298 297 295 300 305 304 303 304 305 306 309
314 314 313 313 313 312 311 313 315 315 312 312 310 301 306 306 311 311 312 309 307 307 303 302 301 299 296 295 288 289 290 290 291 297 298 296 296 300 302 303 302 304 305 305 306
314 313 313 313 313 312 309 309 305 303 308 305 303 301 304 310 313 307 309 307 306 303 298 298 296 293 296 296 295 293 291 291 295 298 295 296 297 299 302 302 303 304 306 306 307
313 313 313 313 312 311 308 304 307 307 300 306 306 305 307 309 303 306 309 302 301 296 297 296 293 298 297 295 294 293 292 292 295 297 296 297 296 300 301 302 303 304 305 307 308
312 312 312 313 310 307 305 307 311 310 300 301 305 305 306 308 303 304 305 301 298 295 295 294 295 297 295 294 293 294 292 293 292 296 298 296 294 297 300 302 303 305 306 307 308
311 311 311 310 305 305 304 310 310 309 296 297 301 305 307 307 301 309 305 302 298 295 295 295 298 296 294 293 295 291 296 295 294 294 289 296 287 295 298 300 301 303 305 306 308
310 311 311 309 304 301 308 309 309 309 286 301 301 310 307 303 302 303 307 303 297 296 296 295 294 294 294 295 296 294 298 297 296 294 292 292 289 293 298 296 299 302 304 306 307
310 310 310 306 305 305 307 308 310 295 286 296 300 299 299 301 300 302 303 305 303 298 297 296 299 297 297 298 299 300 297 297 294 293 285 291 290 290 294 297 299 301 303 304 307
309 309 307 307 302 306 307 308 293 287 299 293 295 297 296 295 297 298 297 296 295 291 291 295 295 299 301 296 299 298 294 286 284 285 283 291 289 291 297 299 300 301 303 306 308
308 306 305 307 308 307 309 301 286 292 293 298 296 296 293 294 294 295 294 293 297 293 291 289 287 296 300 297 294 295 292 285 278 280 283 290 285 290 299 302 303 304 305 306 308
305 303 305 309 309 309 305 292 290 294 296 294 295 291 291 293 293 294 293 293 296 298 291 290 289 298 299 300 298 293 290 295 288 288 283 286 290 296 299 301 302 303 304 305 306
300 299 304 307 309 307 297 290 295 298 297 296 289 293 290 291 291 291 291 296 295 298 298 293 287 293 296 300 299 296 298 287 289 278 277 284 286 288 294 297 300 301 302 304 306
300 301 305 307 309 302 293 294 296 300 299 295 293 292 291 290 291 291 292 295 298 297 298 296 291 289 293 292 290 293 291 292 290 285 280 279 285 296 296 298 298 300 302 302 303
298 297 305 307 300 295 294 295 297 299 300 298 296 293 293 293 291 291 291 294 299 299 294 296 293 287 289 293 294 293 291 291 285 282 286 285 284 297 300 299 300 301 302 303 303
295 295 306 305 294 293 296 295 298 297 297 295 296 296 295 291 288 291 293 297 298 298 296 296 290 284 285 290 292 291 293 293 291 289 284 281 284 298 300 299 300 301 302 302 302
297 293 297 298 296 293 291 292 293 299 296 297 296 296 294 291 293 289 290 295 298 299 300 299 291 288 283 286 290 287 290 292 291 285 285 285 287 293 296 297 300 301 301 301 302
296 291 292 290 293 293 292 293 292 292 298 298 293 294 292 289 290 289 291 293 295 301 296 295 289 290 290 291 290 289 289 290 288 289 284 288 289 294 297 298 299 300 301 300 300
296 295 295 293 293 291 292 292 291 293 293 292 292 294 293 289 289 287 290 291 290 294 295 293 289 290 287 290 290 287 289 290 290 290 290 291 291 297 299 300 299 299 299 299 299
295 296 296 292 292 290 291 291 291 292 294 295 294 292 291 293 295 296 297 296 294 292 292 291 290 286 282 287 288 284 289 290 290 293 293 288 294 298 297 297 297 297 298 297 298
Wind_Speed
17 17 15 15 13 13 12 11 11 11 11 11 12 12 12 11 10 4 9 8 9 9 6 7 6 7 4 3 2 2 5 7 8 7 4 2 3 3 5 9 8 4 11 11 13
17 16 16 15 14 13 12 11 11 11 10 10 10 11 12 11 10 12 10 8 12 13 7 8 10 10 4 5 4 5 5 7 3 6 6 9 9 11 7 10 13 13 14 10 7
18 17 16 16 14 13 12 11 11 10 10 10 10 10 9 9 5 2 7 13 10 8 2 3 9 4 4 4 5 4 6 4 6 9 8 9 11 10 12 16 12 11 16 15 13
18 18 18 16 14 13 12 11 9 9 9 9 8 8 9 2 3 4 8 15 12 5 5 8 5 6 5 7 5 4 5 6 4 7 8 11 10 10 13 16 17 16 16 16 17
20 19 17 16 15 13 12 10 9 8 8 7 7 6 3 3 5 4 16 15 11 7 7 7 9 5 5 4 6 5 3 5 7 8 9 12 14 14 12 12 17 17 15 18 18
19 20 18 16 15 14 12 11 10 8 6 6 5 3 2 3 3 6 12 10 10 7 8 7 5 4 6 4 4 6 3 3 5 8 8 11 16 4 5 8 11 13 14 15 14
19 19 19 17 15 13 13 10 10 9 7 4 3 3 3 4 3 5 11 4 7 4 6 3 3 2 4 5 3 2 3 3 8 4 6 4 15 10 12 6 8 13 14 14 10
20 19 20 19 17 14 12 12 11 9 6 3 4 2 7 3 2 6 5 3 3 3 1 2 2 3 1 5 3 1 1 3 2 4 2 4 14 12 3 7 13 13 14 13 16
22 21 21 20 18 16 14 14 9 5 5 6 4 3 4 1 3 5 9 3 5 3 1 2 2 3 3 3 0 3 1 1 6 4 6 5 9 8 18 17 14 11 11 12 14
22 22 22 20 18 15 11 9 8 9 5 4 4 4 5 2 3 5 5 3 3 5 5 3 3 3 3 5 4 4 2 3 7 5 8 15 16 14 17 16 15 12 11 12 14
23 23 22 21 18 9 6 3 3 3 5 7 3 3 6 6 2 3 6 8 1 3 4 2 5 9 8 7 2 3 4 7 10 13 6 14 15 13 15 13 14 14 13 10 13
24 23 24 23 19 12 4 4 2 2 7 12 13 8 7 3 3 3 9 7 4 6 3 3 9 10 6 5 6 6 7 10 9 10 6 15 18 16 13 13 14 15 15 16 10
22 24 23 23 20 4 3 3 5 4 4 4 5 4 4 9 4 5 9 6 4 6 8 8 2 8 7 6 7 8 7 9 12 8 11 17 21 15 9 12 14 13 14 15 16
24 23 23 27 2 2 4 1 3 4 3 3 2 2 5 5 4 6 10 6 4 9 7 7 5 8 5 7 9 11 6 7 6 9 12 11 19 16 17 19 15 16 15 15 16
25 25 21 14 7 3 2 6 2 3 1 2 4 6 4 5 2 2 4 4 9 6 6 2 3 3 4 5 8 8 1 5 8 12 11 13 20 13 12 16 20 17 20 20 12
27 27 23 2 3 6 6 4 3 2 2 3 4 3 4 2 1 4 3 1 1 5 7 8 1 4 5 3 1 2 6 7 3 8 14 17 17 13 17 16 13 14 14 11 12
29 29 15 3 1 5 5 2 2 1 6 7 3 1 1 0 2 0 3 5 6 4 8 6 9 6 2 5 2 1 3 8 9 10 15 5 15 18 24 22 16 12 9 9 10
31 24 2 3 4 7 2 2 1 2 4 6 4 4 2 4 2 3 3 3 1 2 2 4 5 3 3 1 0 2 2 5 11 14 18 15 11 8 11 10 6 7 8 10 12
23 4 1 5 2 2 1 2 2 3 5 7 8 2 2 4 5 6 4 3 3 5 4 4 3 2 3 2 2 5 5 2 5 8 10 7 12 18 2 10 12 12 13 12 13
5 4 3 9 0 1 2 3 2 6 7 2 2 2 8 3 5 3 3 2 3 1 1 2 5 2 2 4 5 2 7 3 2 5 7 8 12 7 9 11 13 15 14 14 15
2 2 4 10 1 3 2 2 1 6 9 5 5 4 2 0 2 4 5 1 3 3 2 4 3 2 2 5 6 4 4 3 0 3 5 9 5 3 7 6 10 12 10 13 13
4 2 6 5 2 2 1 4 4 4 5 4 6 7 7 9 10 9 8 4 2 5 4 2 3 4 6 2 4 6 7 10 6 6 7 7 16 10 6 6 12 11 10 11 12
3 3 4 4 2 3 4 4 3 5 4 3 4 4 7 4 4 6 6 4 4 5 7 7 3 4 3 4 3 5 8 6 3 1 13 11 9 1 8 18 18 11 11 12 13
3 4 4 6 3 5 5 3 2 7 2 4 3 2 1 8 6 5 1 2 5 3 2 9 5 9 8 7 2 6 9 11 11 10 13 18 25 22 19 18 15 12 13 16 17
4 2 1 4 3 7 3 4 6 4 4 3 2 2 6 5 5 9 11 8 4 4 2 4 7 7 10 11 9 14 17 16 17 18 16 20 20 21 19 16 11 12 14 16 18
2 1 1 1 4 5 3 2 6 3 3 1 4 7 9 7 8 6 10 10 10 5 4 2 4 3 9 12 14 18 19 18 18 17 20 20 18 5 6 9 13 15 19 22 22
1 1 1 1 4 4 2 4 5 10 4 5 8 7 11 13 15 17 14 17 16 7 5 3 3 2 6 1 9 14 9 11 10 10 10 13 15 16 18 16 16 18 20 23 23
Wind_Direction
339 338 332 328 322 317 314 309 305 301 296 299 302 302 307 315 314 272 232 221 184 227 190 143 136 148 120 131 117 129 208 219 218 209 213 286 298 298 307 285 294 288 292 311 334
340 338 336 332 327 323 317 312 305 301 297 296 297 306 313 320 296 244 247 210 213 177 180 153 141 145 122 137 154 194 220 214 207 229 251 273 287 296 286 282 285 293 285 289 308
342 339 339 336 332 326 319 313 308 302 297 299 301 306 310 313 264 217 178 188 180 169 178 121 131 122 128 155 167 151 226 195 217 234 259 267 269 264 275 274 264 268 290 294 295
345 344 340 338 334 328 322 315 309 302 299 301 302 306 311 293 79 7 127 162 177 173 145 129 132 138 152 177 159 185 224 218 276 244 263 264 275 267 258 266 270 265 263 279 278
347 347 343 337 333 329 323 316 310 304 302 301 302 306 310 251 265 43 127 143 149 167 163 153 154 147 164 150 142 195 227 201 247 260 252 264 261 261 272 261 262 267 263 266 269
344 347 342 338 331 327 321 314 303 301 291 291 293 293 274 259 98 141 139 143 159 169 164 162 162 180 121 142 182 161 213 252 272 258 251 257 266 236 261 263 258 269 271 271 270
342 340 340 338 333 325 320 312 299 285 285 278 256 238 248 237 18 154 160 180 172 163 151 181 143 152 147 135 135 137 259 267 230 274 260 263 272 237 264 288 288 293 292 293 283
338 335 337 337 333 326 320 310 298 285 262 219 199 229 256 212 151 153 189 147 199 224 138 158 136 91 39 129 78 106 64 290 23 307 267 222 271 298 303 306 305 296 291 288 294
336 333 333 335 334 328 323 311 285 245 221 170 164 251 270 320 230 185 179 188 161 178 268 74 58 60 114 117 294 38 238 324 311 235 288 239 296 300 302 300 297 290 285 291 293
334 332 332 330 331 325 323 328 116 119 126 181 252 264 240 130 161 149 176 147 130 139 122 126 94 165 130 191 248 164 243 225 279 280 286 285 287 287 287 287 289 284 272 276 280
331 333 331 328 326 325 325 185 190 178 211 224 177 271 283 319 206 161 152 143 90 72 175 86 218 226 225 211 211 225 236 266 273 277 270 277 288 288 288 291 283 287 285 268 277
329 333 330 331 328 307 181 222 163 95 298 232 253 262 263 342 330 121 162 158 166 194 141 210 255 262 204 190 213 225 268 282 279 264 236 288 286 294 269 271 271 272 283 293 280
330 329 333 331 330 132 239 249 118 133 285 293 192 206 198 173 224 223 181 138 171 184 202 226 171 112 170 204 221 245 257 274 288 304 276 284 284 277 262 256 256 262 258 268 278
327 329 335 337 233 352 247 65 323 195 323 264 224 166 139 166 219 186 185 164 187 218 189 244 235 243 226 236 213 270 207 262 275 306 303 346 294 289 294 285 273 266 263 261 263
324 323 330 325 303 239 81 324 155 218 92 15 88 146 139 202 114 145 177 193 207 180 189 195 197 202 239 249 187 282 170 264 282 283 293 279 275 290 277 274 284 279 275 276 286
322 320 329 95 210 255 313 304 215 229 77 58 117 150 161 241 11 119 147 160 7 214 237 258 201 237 266 95 228 19 289 282 268 278 260 277 267 296 297 300 298 286 285 301 306
320 319 315 176 334 339 298 186 147 243 336 3 23 104 183 126 133 207 146 182 222 209 242 265 254 252 191 224 124 172 305 286 266 257 277 338 298 281 298 302 302 310 332 348 336
323 320 168 227 284 335 251 127 140 27 4 354 352 343 79 357 39 29 124 201 159 152 203 253 257 174 126 236 193 135 256 265 291 293 299 305 263 279 348 17 10 5 356 337 358
326 336 11 341 308 199 192 127 78 54 359 335 320 62 48 51 11 358 3 293 208 190 224 199 249 90 56 126 229 145 226 67 290 273 283 267 281 280 357 11 3 3 3 1 336
336 325 3 339 21 307 83 113 104 47 343 309 311 62 198 303 335 338 250 225 189 154 299 163 267 6 84 157 71 256 140 202 156 280 276 291 287 287 328 339 342 354 356 351 355
1 38 358 341 264 46 92 79 55 41 26 356 339 266 109 113 217 263 255 276 232 152 105 150 227 142 238 215 233 173 198 152 111 247 274 295 286 266 291 309 330 338 349 351 351
343 53 356 331 29 9 53 342 326 358 14 43 357 332 261 265 273 253 258 232 332 178 189 137 173 234 245 129 284 241 241 225 225 211 235 286 279 268 244 308 331 326 332 342 339
16 301 340 327 33 26 336 336 323 1 16 23 239 276 334 314 246 270 226 106 43 191 183 175 191 255 193 159 172 212 193 198 185 312 252 264 267 190 260 294 313 307 325 333 335
0 358 355 37 35 15 348 306 309 350 34 326 268 286 287 262 268 269 314 136 349 306 166 170 175 240 261 291 182 238 229 230 245 261 271 253 276 290 299 304 305 313 327 329 325
10 70 46 353 16 341 290 308 305 319 22 358 306 263 238 257 302 269 299 309 239 197 115 217 243 225 252 266 254 266 270 261 247 255 253 275 286 301 309 310 309 309 312 315 316
16 359 103 319 279 324 302 282 292 16 346 314 250 282 272 264 218 281 310 299 271 253 205 176 232 222 269 269 268 275 269 261 254 252 264 269 283 330 306 298 300 310 314 311 310
122 128 260 93 333 318 284 355 336 337 276 247 297 301 265 257 259 260 281 275 260 268 192 204 199 257 280 300 301 270 271 261 258 245 257 270 297 313 306 308 308 307 302 299 301